Regional Weather Roundup
Issued by NWS

Home | Current Version | Previous Version | Graphics & Text | Print | Product List | Glossary On
Versions: 1 2 3 4 5 6 7 8 9 10 11 12 13 14 15 16 17 18 19 20 21 22 23 24 25 26 27 28 29 30 31 32 33 34 35 36 37 38 39 40 41 42 43 44 45 46 47 48 49 50
000
ASUS43 KLMK 011010
RWRKY
KENTUCKY REGIONAL WEATHER ROUNDUP
NATIONAL WEATHER SERVICE LOUISVILLE KY
600 AM EDT SAT OCT 01 2016

NOTE "FAIR" INDICATES FEW OR NO CLOUDS BELOW 12,000 FEET
WITH NO SIGNIFICANT WEATHER AND/OR OBSTRUCTIONS TO VISIBILITY.

KYZ001>023-026-027-061>063-070>075-011100-
WESTERN AND SOUTH CENTRAL KENTUCKY

CITY           SKY/WX    TMP DP  RH WIND       PRES   REMARKS
PADUCAH        CLOUDY    62  59  90 W3        30.01R
HENDERSON      CLOUDY    57  54  88 CALM      29.99R
OWENSBORO      NOT AVBL
HOPKINSVILLE   CLOUDY    60  60 100 SW6       30.01S
BOWLING GREEN  CLOUDY    61  58  90 SW6       30.02S
GLASGOW        CLOUDY    58  58 100 S3        30.02S FOG
$$

KYZ024-025-028>034-038-045-046-053-011100-
NORTH CENTRAL KENTUCKY

CITY           SKY/WX    TMP DP  RH WIND       PRES   REMARKS
LOUISVILLE/SDF CLOUDY    57  54  89 S7        30.01F
LOUISVILLE/LOU CLOUDY    57  54  89 S5        30.02S
FORT KNOX      FOG       56  56 100 NE2       30.00S VSB 3/4
$$

KYZ035>037-039>044-047>052-055>060-089>105-011100-
NORTHEAST KENTUCKY

CITY           SKY/WX    TMP DP  RH WIND       PRES   REMARKS
LEXINGTON      CLOUDY    55  52  89 S6        30.03S
COVINGTON      CLOUDY    56  55  97 S7        30.02S
FRANKFORT      MOCLDY    55  52  89 N3        30.02S FOG
$$

KYZ054-064>069-076>088-106>120-011100-
SOUTHEAST KENTUCKY

CITY           SKY/WX    TMP DP  RH WIND       PRES   REMARKS
JACKSON        CLEAR     52  49  89 SE5       30.06S
LONDON         PTCLDY    50  47  89 CALM      30.05F
SOMERSET       CLOUDY    52  52 100 S3        30.06R
MIDDLESBORO    FOG       48  48 100 CALM      30.09F VSB 1/2
MONTICELLO     PTSUNNY   51  50  96 W5        30.06R
$$




USA.gov is the U.S. government's official web portal to all federal, state and local government web resources and services.